Starlink 11280

operational
NORAD ID: 61245 Int'l Des: 2024-175 Owner: SPXS Country: US Constellation: starlink
LEOCIRCULAR

Starlink 11280について

説明を読み込み中...

リアルタイム位置

3D地球を読み込み中...

次回通過

高度履歴

Altitude vs Time

uPlot chart will show altitude changes over time

軌道要素

1 61245U 24175C 25259.52339268 -.00005063 00000-0 -36979-4 0 9992
2 61245 53.1598 194.7075 0001667 99.0118 261.1089 15.69688730 56014
Epoch: Sep 16, 2025 • Age: 15 hours

現在のステータス

高度 362.1 km
速度 7.69 km/s
衛星直下点 -6.03°S, 133.56°E
打ち上げ日 Sep 25, 2024
運用期間 0.9 years
タイプ internet

技術仕様

分類 Payload
質量 960.00 kg
乾燥質量 910.00 kg
総質量 960.00 kg
長さ 0.30 m
直径 4.10 m
スパン 29.00 m
形状 Box + pan
製造者 SPXS
バスタイプ Starlink V2MD
フェーズステータス In Orbit
所有者/国 SPXS/US

大規模コンステレーション

Loading constellations...